Wetbulb
60.42 56.91 55.42 52.71 43.66 41.61 37.81 41.12 42.66 44.88 44.08 45.49 47.61 45.72 44.32 45.57 45.11 41.80 55.96 60.17 64.75 67.75 70.18 71.79 72.72 73.61 73.72 73.45 73.20 73.13 73.29 72.55 72.22 71.99 71.93 71.88 71.97 72.18 72.33 71.74 71.78 70.87 69.98 69.56 68.87 68.44 67.91 66.97 65.99
55.33 58.13 53.53 47.71 40.02 35.26 36.92 41.12 43.42 45.43 46.69 46.57 46.39 46.10 44.80 44.26 50.76 54.35 55.87 61.23 64.79 67.98 69.81 71.10 71.64 73.29 73.59 73.28 73.03 72.95 73.35 73.21 72.36 72.17 72.20 72.26 72.08 72.14 71.72 71.57 70.95 70.10 69.08 68.91 68.21 67.81 66.24 65.11 64.16
56.95 56.80 47.72 42.94 38.28 35.70 37.49 40.94 41.49 45.27 46.41 45.60 44.83 46.80 45.48 47.14 50.41 54.88 58.35 61.62 63.14 67.60 69.20 70.98 71.50 73.29 73.31 72.90 72.83 72.88 72.88 73.06 73.06 72.88 72.63 72.05 71.59 71.48 70.46 70.23 70.07 69.46 68.29 67.40 66.63 65.97 64.30 63.11 61.90
53.34 50.87 46.69 39.68 37.05 39.16 39.78 40.61 44.35 44.54 45.30 46.05 44.98 43.23 47.09 50.28 52.16 56.50 60.46 61.63 60.43 66.90 68.76 70.20 71.82 73.30 73.24 72.79 72.76 72.62 72.71 73.05 73.41 73.28 72.63 71.72 71.12 69.99 69.05 68.68 69.25 68.41 67.41 66.22 65.07 64.21 62.69 60.94 59.67
51.17 46.08 39.64 37.93 38.69 41.16 41.85 44.89 45.21 44.67 44.32 45.01 45.32 43.14 45.01 51.38 55.41 58.43 59.85 61.16 59.33 62.58 67.67 69.95 71.38 72.51 72.84 72.77 72.67 72.44 72.48 72.81 73.08 73.08 72.80 72.16 70.53 68.41 67.22 66.81 67.62 67.80 66.34 65.14 64.14 62.65 60.67 59.23 57.93
46.03 43.18 37.17 35.35 38.10 40.93 42.78 45.44 44.22 44.07 44.64 44.40 43.29 42.98 44.16 50.11 51.28 54.65 59.32 59.75 60.02 61.37 67.86 69.60 68.83 70.19 71.47 72.15 72.22 71.99 71.98 72.13 72.56 72.71 72.49 71.89 70.19 67.81 66.60 66.27 66.40 66.08 65.34 63.84 63.38 61.08 59.61 58.34 56.64
45.34 40.91 36.61 37.61 39.28 41.36 43.76 44.61 42.16 41.84 42.81 43.29 44.62 41.57 45.42 47.31 51.04 53.77 57.09 58.63 60.12 60.74 66.69 68.44 69.24 69.17 68.42 69.78 70.17 70.74 71.20 71.33 71.78 71.81 71.51 70.00 69.06 68.28 66.44 66.10 65.65 65.60 64.11 63.21 61.95 60.20 59.09 57.66 55.61
45.78 41.96 38.36 37.94 38.14 39.77 43.77 43.95 45.14 43.27 44.04 46.34 46.08 41.20 43.65 48.85 52.73 53.53 54.62 55.96 57.95 59.39 61.62 66.24 67.49 68.29 68.53 68.90 67.15 68.16 69.15 69.51 70.11 69.69 68.17 66.73 66.49 66.21 65.43 64.05 65.34 64.56 63.09 62.64 61.00 59.72 58.74 56.87 54.31
47.23 38.35 35.88 38.42 39.99 40.16 44.30 43.11 45.78 45.92 43.74 44.41 46.88 45.81 47.68 49.92 52.29 51.50 52.35 53.98 54.92 58.38 60.08 61.23 65.16 66.26 67.25 66.80 66.57 65.02 66.77 67.31 67.40 66.67 64.39 63.46 62.72 62.45 61.79 61.14 63.68 63.90 62.81 62.01 60.60 59.20 57.75 55.01 51.74
43.07 37.74 39.87 42.68 40.85 41.45 43.70 42.31 42.14 43.23 42.92 43.36 45.07 46.73 48.01 51.22 49.05 49.74 50.41 51.59 52.88 54.96 58.03 60.66 61.56 64.59 65.61 68.12 66.82 66.14 66.81 67.04 66.83 65.43 64.40 63.48 61.07 60.30 60.27 58.60 61.10 62.36 62.20 61.85 60.29 58.79 56.38 51.19 43.24
44.41 40.07 43.80 45.97 46.12 45.23 44.56 44.75 44.72 42.34 40.55 44.12 44.02 45.74 47.23 47.79 47.60 48.23 48.46 49.97 52.25 54.50 56.67 59.92 61.30 62.16 63.82 65.24 64.64 66.26 67.49 66.28 64.76 64.55 63.04 62.12 60.62 59.24 58.04 56.29 57.13 56.51 57.12 55.39 56.09 53.51 48.73 46.64 44.01
41.18 46.01 45.95 46.87 46.91 45.30 43.62 45.23 44.79 43.97 46.09 47.05 46.94 47.10 46.19 46.89 47.05 46.51 47.45 48.33 48.33 50.70 56.33 58.53 60.61 61.70 62.22 63.97 63.38 65.55 66.23 65.78 65.34 64.69 63.24 62.61 61.34 59.36 54.97 54.22 53.85 53.53 52.12 50.89 49.25 47.82 45.25 43.02 42.44
41.64 43.30 46.35 46.50 45.89 44.98 45.33 43.63 43.89 44.52 47.81 47.65 47.66 47.72 46.04 45.81 46.06 46.44 47.65 47.84 47.93 48.83 51.05 56.61 59.41 61.06 62.43 61.77 61.41 63.52 64.87 64.56 63.65 64.54 64.06 63.39 61.72 59.15 55.12 52.64 53.10 52.02 50.75 49.45 47.82 45.90 42.68 41.63 41.56
42.70 43.34 43.60 44.59 45.11 44.64 43.43 42.30 42.95 44.93 45.20 45.76 45.75 45.01 44.76 45.28 45.14 44.54 45.64 45.98 46.26 47.61 49.04 51.77 58.54 60.46 60.92 62.18 61.01 60.71 61.10 62.02 61.84 61.12 62.82 63.44 61.66 58.80 55.04 52.34 52.56 52.36 51.05 48.88 46.75 43.26 41.36 40.47 40.30
43.41 40.40 41.77 42.93 43.15 43.10 43.34 39.91 41.60 45.24 44.00 44.71 44.87 42.91 45.22 44.94 44.71 43.49 44.69 44.59 44.85 45.82 47.12 49.25 55.36 57.78 59.23 59.66 60.31 59.97 60.23 60.27 60.74 61.39 60.34 60.63 60.69 57.89 54.27 52.03 51.73 52.36 50.30 47.82 43.74 41.79 40.91 39.57 39.95
40.00 37.05 34.41 41.88 42.43 42.58 41.17 35.86 43.00 44.80 43.10 44.16 44.94 42.38 43.92 43.21 43.18 43.05 43.83 43.76 43.82 44.28 44.48 46.28 49.34 56.51 57.43 57.95 58.51 59.77 59.32 59.04 58.88 59.53 59.49 59.03 59.39 56.94 53.04 51.01 50.43 50.51 48.47 45.34 41.81 40.43 39.34 38.48 37.99
36.10 32.02 34.56 38.74 43.23 41.51 39.32 35.83 42.54 45.03 43.38 43.24 42.47 42.04 42.19 41.56 41.70 41.96 42.56 42.47 42.73 43.12 43.67 44.43 45.73 46.60 54.54 55.80 56.70 57.63 58.46 57.82 57.97 58.28 58.87 59.42 58.06 55.81 53.50 50.09 49.53 48.86 46.06 42.80 41.93 38.50 38.55 36.59 36.44
32.58 32.59 35.89 35.19 40.97 39.69 37.43 37.37 40.77 43.07 43.44 43.81 41.58 39.33 39.91 39.93 40.21 41.70 41.54 42.04 41.98 41.86 42.79 43.46 44.84 45.40 49.15 51.60 52.98 53.85 54.90 55.51 56.01 56.37 58.60 58.57 58.42 54.95 52.27 49.87 48.64 46.90 43.72 40.66 39.46 38.41 37.27 36.71 36.40
35.86 34.75 33.59 37.08 41.62 37.92 38.36 37.56 40.10 42.62 41.84 41.61 39.15 39.29 39.02 39.58 40.89 40.93 40.89 40.53 40.66 40.60 41.02 41.77 42.58 43.61 44.94 45.96 48.28 49.66 50.77 52.53 53.40 56.14 57.34 57.42 57.09 55.57 51.06 49.28 48.43 44.61 43.53 41.29 39.30 37.55 36.97 35.97 35.23
36.98 34.52 34.02 37.46 40.68 37.91 37.26 36.66 39.90 41.75 40.61 40.55 39.73 38.27 38.30 38.79 38.93 39.53 39.30 39.13 38.82 38.85 39.33 40.09 41.01 42.18 43.43 44.93 45.08 46.86 46.28 46.09 49.13 51.91 52.87 55.39 55.17 54.59 51.23 48.14 46.31 43.42 40.51 39.26 38.54 37.72 35.78 36.06 35.61
35.38 34.11 34.26 35.30 36.79 36.96 34.21 33.62 37.61 40.78 40.10 40.17 39.51 39.55 39.14 37.84 37.26 37.48 37.92 37.48 37.94 37.71 37.92 39.29 39.81 40.31 40.86 42.60 44.09 44.20 44.77 44.06 43.52 45.36 47.87 50.67 52.74 52.27 51.18 48.46 46.15 44.06 43.05 41.14 38.91 37.72 37.16 35.28 35.24
33.91 38.23 37.54 36.26 32.01 28.00 34.46 25.57 33.82 37.92 37.07 37.29 37.23 36.12 36.15 36.66 37.23 37.32 36.69 36.67 36.55 36.17 37.30 38.18 39.26 39.43 40.00 39.83 39.73 39.27 39.48 39.06 40.15 41.20 41.96 44.18 46.88 47.95 49.86 48.78 46.85 44.32 42.58 41.05 38.60 38.58 37.53 35.83 33.54
36.32 37.19 35.36 34.33 30.79 28.21 30.38 26.24 31.86 35.42 33.53 34.43 34.97 35.42 35.36 35.81 35.96 35.43 35.21 36.34 36.45 35.66 34.88 35.49 37.01 37.89 38.63 38.46 37.90 37.43 36.86 37.81 38.52 39.29 39.20 40.14 42.58 44.27 45.12 45.31 46.69 44.74 42.92 40.84 39.49 38.53 36.85 35.49 35.62
38.30 34.79 34.33 31.67 29.76 23.83 29.99 29.98 30.22 33.05 34.76 34.42 35.45 35.30 35.24 34.80 34.67 35.10 35.89 35.98 34.63 34.52 33.93 34.68 34.80 35.29 36.43 37.14 36.79 36.09 35.27 35.47 35.49 35.73 36.02 37.01 38.26 40.32 41.29 42.79 42.37 42.33 43.49 41.21 39.75 39.32 38.22 38.25 36.35
35.47 31.24 25.07 22.55 21.05 22.70 31.20 28.40 32.41 36.45 36.76 36.78 34.21 33.45 33.47 33.50 32.98 33.32 33.15 33.15 33.35 33.10 32.91 34.23 33.08 33.10 34.20 34.63 34.69 34.32 34.51 34.69 34.55 34.48 34.46 34.25 34.94 35.49 36.29 37.00 37.88 39.24 40.29 39.92 38.48 37.78 36.94 36.29 37.53
33.42 33.68 25.24 16.36 19.77 21.67 30.90 25.85 31.60 34.92 35.86 35.71 35.25 34.41 34.57 34.06 33.50 32.79 32.86 32.51 32.48 32.22 31.87 31.43 31.29 31.09 32.27 32.76 32.72 32.76 32.76 32.60 32.75 33.06 33.32 33.53 33.74 34.52 35.05 34.79 34.94 35.53 37.15 38.58 37.59 35.97 34.83 34.48 35.05
33.58 30.93 35.00 28.17 19.18 20.01 26.68 31.46 34.71 35.02 33.67 33.54 33.14 33.00 32.93 33.76 33.16 32.57 32.62 32.42 32.31 31.79 31.49 30.93 30.23 30.18 30.67 31.14 31.26 31.02 31.59 31.90 31.58 31.50 31.84 31.82 32.22 33.92 33.80 33.40 33.27 33.65 33.97 34.35 35.27 33.91 33.28 33.32 33.56
35.25 35.95 28.33 27.73 15.11 15.20 24.38 25.74 27.67 31.36 30.94 31.86 31.19 30.85 31.77 32.17 33.90 33.65 32.50 32.78 32.33 32.05 31.16 31.34 30.79 29.70 29.72 30.72 30.98 30.59 30.18 30.21 29.91 29.96 29.28 29.80 30.75 31.14 31.17 31.22 31.49 31.98 32.48 32.51 32.44 31.87 32.25 31.85 32.33
32.10 30.98 31.68 31.54 28.41 20.17 17.38 23.70 33.69 33.26 31.91 30.11 30.36 31.16 31.13 31.28 31.60 32.62 31.17 30.82 31.17 30.85 30.67 31.89 31.79 30.73 29.44 29.72 30.11 30.07 29.86 29.98 29.05 28.75 28.23 27.89 28.42 29.68 29.81 29.73 29.55 29.41 29.68 30.41 30.60 31.03 31.26 30.75 31.40
35.19 32.79 32.67 25.72 23.21 24.86 26.30 26.92 35.62 33.49 32.30 32.20 31.58 32.50 32.05 31.75 30.63 31.05 32.06 30.34 30.03 30.39 30.50 28.88 29.09 29.36 29.33 29.86 30.03 30.23 30.27 29.69 28.51 26.91 27.73 26.93 26.74 27.46 28.56 28.70 27.91 27.78 27.96 28.35 28.49 29.11 30.20 30.13 30.19
MSLP
1014.54 1014.01 1014.45 1014.54 1015.97 1016.46 1015.75 1014.80 1014.00 1013.63 1013.39 1013.19 1013.10 1013.22 1013.51 1013.61 1013.78 1014.57 1014.04 1013.93 1014.26 1014.88 1015.20 1015.64 1015.93 1016.17 1016.44 1016.82 1017.23 1017.53 1017.75 1017.96 1018.17 1018.38 1018.59 1018.82 1018.95 1019.09 1019.23 1019.29 1019.47 1019.74 1019.87 1020.04 1020.13 1020.34 1020.42 1020.57 1020.75
1014.56 1014.04 1014.54 1015.40 1016.27 1016.44 1015.70 1014.37 1013.79 1013.22 1012.96 1012.89 1012.97 1013.01 1013.27 1013.38 1013.36 1013.96 1014.09 1013.92 1014.10 1014.53 1015.09 1015.34 1015.73 1016.09 1016.41 1016.77 1017.05 1017.36 1017.66 1017.94 1018.15 1018.33 1018.50 1018.68 1018.90 1019.06 1019.28 1019.49 1019.61 1019.85 1020.04 1020.15 1020.36 1020.44 1020.60 1020.63 1020.92
1014.60 1014.46 1015.62 1015.96 1016.38 1015.68 1014.87 1014.17 1013.52 1013.14 1012.85 1012.86 1013.03 1012.85 1012.96 1013.16 1013.39 1013.61 1013.63 1013.73 1014.02 1014.59 1014.89 1015.34 1015.72 1015.92 1016.21 1016.57 1017.03 1017.31 1017.57 1017.78 1018.01 1018.26 1018.52 1018.73 1018.91 1019.11 1019.40 1019.62 1019.78 1019.91 1020.24 1020.31 1020.51 1020.55 1020.70 1020.73 1020.84
1014.77 1015.10 1015.91 1016.00 1015.84 1014.57 1013.95 1013.59 1013.00 1012.98 1012.98 1012.83 1012.98 1013.30 1013.01 1012.84 1013.13 1013.44 1013.62 1013.82 1014.20 1014.65 1014.89 1015.33 1015.75 1016.09 1016.38 1016.57 1016.81 1017.12 1017.39 1017.65 1017.91 1018.17 1018.40 1018.71 1019.07 1019.39 1019.53 1019.74 1019.76 1019.96 1020.31 1020.45 1020.57 1020.69 1020.89 1021.03 1021.03
1015.21 1016.00 1016.42 1016.26 1015.26 1014.02 1013.51 1013.09 1012.86 1012.93 1012.93 1013.00 1012.94 1013.25 1013.31 1013.46 1013.62 1013.49 1013.67 1013.89 1014.19 1014.65 1014.73 1015.11 1015.60 1015.95 1016.26 1016.57 1016.89 1017.15 1017.38 1017.54 1017.70 1017.95 1018.25 1018.60 1019.01 1019.40 1019.65 1019.82 1019.93 1020.19 1020.41 1020.53 1020.64 1020.90 1021.15 1021.21 1021.21
1015.96 1016.30 1016.79 1016.42 1015.18 1013.96 1013.40 1012.82 1012.88 1013.02 1012.94 1013.04 1013.14 1013.35 1013.71 1013.76 1013.94 1013.93 1013.80 1013.93 1014.01 1014.42 1014.68 1014.89 1015.20 1015.56 1015.91 1016.26 1016.62 1016.99 1017.34 1017.64 1017.85 1017.96 1018.16 1018.47 1018.84 1019.30 1019.58 1019.83 1020.04 1020.34 1020.59 1020.67 1020.88 1021.11 1021.38 1021.38 1021.47
1016.24 1016.85 1016.81 1015.97 1014.91 1013.92 1013.36 1012.82 1012.95 1013.12 1013.09 1013.18 1013.10 1013.47 1013.82 1013.91 1013.83 1013.86 1013.96 1014.08 1014.10 1014.07 1014.42 1014.77 1015.05 1015.34 1015.72 1016.07 1016.42 1016.79 1017.14 1017.44 1017.73 1017.99 1018.24 1018.60 1018.92 1019.19 1019.57 1019.86 1020.18 1020.41 1020.62 1020.76 1021.03 1021.27 1021.39 1021.49 1021.64
1016.04 1016.86 1016.70 1015.73 1014.97 1014.03 1013.32 1013.00 1012.91 1013.10 1013.10 1013.05 1013.15 1013.53 1013.76 1013.37 1013.69 1013.70 1013.83 1014.05 1014.16 1014.27 1014.29 1014.60 1015.08 1015.48 1015.76 1015.98 1016.30 1016.60 1016.98 1017.31 1017.61 1017.90 1018.17 1018.62 1019.06 1019.42 1019.68 1020.03 1020.34 1020.54 1020.73 1020.90 1021.17 1021.36 1021.44 1021.65 1021.78
1015.89 1016.89 1016.82 1015.77 1015.09 1014.47 1013.81 1013.68 1013.44 1013.22 1013.33 1013.37 1013.20 1013.20 1013.04 1013.44 1013.77 1014.04 1014.17 1014.14 1014.24 1014.43 1014.55 1014.63 1014.84 1015.25 1015.64 1016.02 1016.15 1016.40 1016.57 1017.01 1017.40 1017.70 1018.07 1018.48 1018.93 1019.27 1019.62 1020.04 1020.43 1020.66 1020.83 1021.02 1021.27 1021.41 1021.57 1021.76 1021.93
1016.45 1017.19 1016.39 1015.47 1015.16 1014.82 1014.46 1014.42 1014.47 1014.12 1013.98 1013.80 1013.52 1012.99 1013.17 1013.57 1014.05 1014.13 1014.25 1014.30 1014.25 1014.29 1014.34 1014.46 1014.57 1014.80 1015.16 1015.46 1015.94 1016.41 1016.67 1016.86 1017.11 1017.46 1017.92 1018.38 1018.85 1019.21 1019.49 1019.85 1020.22 1020.50 1020.70 1020.91 1021.19 1021.44 1021.73 1021.98 1022.18
1016.15 1016.46 1015.88 1015.12 1014.93 1014.83 1014.67 1014.54 1014.54 1014.64 1014.47 1014.18 1013.80 1013.40 1013.25 1013.38 1013.72 1013.74 1013.67 1013.82 1013.72 1013.46 1013.65 1013.81 1014.09 1014.31 1014.76 1015.06 1015.45 1015.95 1016.37 1016.77 1017.11 1017.31 1017.61 1018.10 1018.60 1019.04 1019.37 1019.77 1020.09 1020.49 1020.73 1021.07 1021.23 1021.52 1021.98 1022.28 1022.53
1015.98 1015.70 1015.64 1015.37 1015.12 1015.15 1014.98 1014.78 1014.84 1014.95 1014.23 1013.87 1013.56 1013.35 1013.23 1013.36 1013.30 1013.28 1013.39 1013.15 1013.09 1013.07 1012.97 1013.07 1013.43 1013.85 1014.14 1014.42 1014.89 1015.27 1015.73 1016.11 1016.52 1016.90 1017.38 1017.90 1018.27 1018.70 1019.36 1019.67 1019.98 1020.37 1020.71 1021.19 1021.61 1021.97 1022.17 1022.26 1022.35
1015.67 1015.69 1015.61 1015.37 1015.19 1015.02 1015.04 1015.14 1015.17 1014.58 1013.67 1013.62 1013.33 1013.09 1013.14 1013.36 1013.14 1013.05 1012.68 1012.47 1012.35 1012.47 1012.39 1012.44 1012.83 1013.20 1013.42 1014.12 1014.60 1014.96 1015.23 1015.65 1016.07 1016.36 1016.93 1017.30 1017.81 1018.18 1018.98 1019.55 1019.83 1020.22 1020.56 1020.94 1021.47 1021.78 1022.06 1022.27 1022.35
1015.82 1015.81 1015.71 1015.37 1014.90 1014.93 1014.98 1014.78 1014.92 1013.88 1013.56 1013.56 1013.28 1013.31 1013.45 1013.66 1014.12 1014.17 1013.79 1013.88 1013.65 1013.32 1012.71 1012.05 1012.37 1012.62 1012.87 1013.65 1014.15 1014.69 1015.10 1015.37 1015.73 1016.03 1016.36 1016.82 1017.22 1017.67 1018.39 1019.26 1019.59 1019.99 1020.31 1020.65 1021.04 1021.47 1021.93 1022.19 1022.33
1015.94 1016.09 1015.91 1014.77 1014.62 1014.70 1014.46 1015.04 1014.60 1013.69 1013.71 1013.50 1013.25 1013.49 1013.63 1014.76 1015.00 1015.46 1015.50 1015.16 1014.90 1014.28 1013.53 1012.80 1012.45 1012.61 1013.00 1013.29 1013.70 1014.13 1014.72 1015.25 1015.61 1015.87 1016.17 1016.50 1016.92 1017.36 1018.00 1018.74 1019.23 1019.51 1019.95 1020.42 1021.01 1021.43 1021.75 1022.12 1022.21
1016.39 1016.57 1016.36 1014.76 1014.67 1014.58 1014.63 1014.87 1014.25 1013.65 1013.79 1013.50 1013.17 1013.97 1014.60 1015.78 1016.45 1016.65 1016.43 1015.90 1015.52 1015.07 1014.40 1013.68 1013.03 1012.88 1012.87 1013.23 1013.56 1013.93 1014.35 1014.81 1015.29 1015.65 1015.87 1016.25 1016.55 1016.94 1017.76 1018.46 1018.87 1019.12 1019.65 1020.22 1020.85 1021.30 1021.82 1022.06 1022.29
1017.01 1016.88 1016.45 1015.60 1014.78 1014.98 1015.23 1015.26 1014.48 1013.69 1013.90 1013.56 1013.80 1014.82 1015.88 1016.80 1017.29 1017.56 1017.37 1016.92 1016.50 1016.08 1015.58 1014.71 1013.98 1013.61 1013.69 1013.67 1013.77 1013.91 1014.17 1014.62 1014.95 1015.27 1015.66 1015.93 1016.33 1016.73 1017.39 1018.17 1018.71 1019.12 1019.69 1020.16 1020.61 1021.22 1021.50 1022.11 1022.43
1017.39 1017.19 1016.58 1016.05 1015.31 1015.10 1015.41 1015.10 1014.96 1014.35 1013.76 1013.53 1014.53 1015.86 1016.88 1017.58 1018.31 1018.42 1018.10 1017.70 1017.30 1016.94 1016.47 1015.95 1015.23 1014.50 1014.24 1014.32 1014.65 1014.82 1014.86 1014.91 1014.98 1015.24 1015.37 1015.71 1016.13 1016.73 1017.23 1017.82 1018.43 1019.00 1019.74 1020.26 1020.68 1021.11 1021.69 1021.88 1022.31
1016.98 1017.14 1016.99 1016.39 1015.62 1015.43 1015.35 1015.45 1014.82 1014.19 1013.86 1014.30 1015.47 1016.56 1017.82 1018.53 1019.16 1018.92 1018.58 1018.29 1018.10 1017.72 1017.40 1017.14 1016.45 1016.26 1015.68 1015.27 1015.48 1015.68 1015.84 1015.81 1015.73 1015.34 1015.26 1015.64 1016.08 1016.47 1017.11 1017.61 1017.94 1018.75 1019.38 1019.87 1020.40 1021.00 1021.64 1022.15 1022.37
1017.08 1016.92 1016.74 1016.39 1015.77 1015.82 1015.51 1015.59 1014.81 1013.90 1014.63 1014.97 1015.96 1017.37 1018.55 1019.12 1019.40 1019.54 1019.48 1019.42 1019.31 1019.09 1018.74 1018.21 1017.85 1017.42 1016.96 1016.61 1016.58 1016.40 1016.49 1016.68 1016.79 1016.51 1016.21 1015.99 1016.10 1016.32 1016.85 1017.43 1018.05 1018.50 1019.10 1019.63 1020.18 1020.67 1021.45 1021.81 1022.10
1016.58 1016.81 1016.83 1016.86 1016.47 1016.18 1016.23 1016.01 1015.35 1014.47 1015.68 1016.67 1017.62 1018.47 1019.08 1019.64 1020.13 1020.45 1020.47 1020.63 1020.47 1020.31 1020.02 1019.62 1019.16 1018.71 1018.37 1017.89 1017.31 1017.00 1016.92 1017.19 1017.56 1017.61 1017.45 1017.21 1016.91 1016.84 1016.93 1017.25 1017.70 1018.39 1018.83 1019.23 1019.51 1019.90 1020.64 1021.49 1021.68
1016.76 1016.34 1016.62 1016.93 1017.28 1017.42 1016.97 1016.50 1015.97 1015.39 1016.89 1017.79 1018.85 1019.47 1020.00 1020.38 1020.63 1020.95 1021.33 1021.45 1021.40 1021.26 1020.72 1020.39 1020.25 1019.88 1019.50 1019.11 1018.75 1018.99 1019.15 1018.94 1019.21 1019.24 1018.98 1018.59 1018.27 1018.14 1017.75 1017.64 1017.81 1018.06 1018.51 1019.01 1019.30 1019.55 1019.87 1020.55 1021.39
1016.57 1016.68 1017.13 1017.42 1017.99 1018.29 1017.92 1018.20 1015.95 1016.03 1017.57 1018.62 1019.53 1020.23 1020.70 1021.26 1021.41 1021.75 1022.02 1022.19 1022.21 1022.09 1021.91 1021.70 1021.10 1020.57 1020.62 1020.60 1020.28 1020.16 1020.02 1020.28 1020.10 1019.75 1019.63 1019.60 1019.26 1018.88 1018.73 1018.52 1018.20 1018.32 1018.47 1018.77 1019.05 1019.42 1019.83 1019.96 1020.21
1016.51 1017.11 1017.71 1018.24 1019.10 1019.46 1018.46 1018.33 1016.77 1016.27 1016.93 1018.72 1020.01 1020.84 1021.49 1021.76 1021.90 1022.14 1022.50 1022.61 1022.83 1022.77 1022.49 1022.24 1022.04 1021.97 1021.74 1021.56 1021.55 1021.61 1021.49 1021.32 1020.94 1020.83 1020.96 1020.92 1020.74 1019.99 1019.92 1019.50 1018.58 1018.42 1018.53 1018.77 1018.79 1019.01 1019.29 1019.63 1019.72
1016.98 1018.27 1019.05 1019.84 1020.44 1019.63 1018.80 1018.36 1016.93 1016.48 1016.72 1018.34 1020.51 1021.65 1022.33 1022.55 1022.63 1022.95 1023.25 1023.46 1023.54 1023.32 1023.20 1023.14 1023.02 1023.02 1022.86 1022.53 1022.43 1022.45 1022.58 1022.27 1022.18 1022.23 1022.07 1022.04 1021.77 1021.47 1020.79 1020.96 1020.12 1019.00 1018.42 1018.48 1018.77 1018.96 1019.05 1019.12 1019.27
1017.42 1018.12 1019.52 1020.63 1021.17 1020.36 1019.63 1019.17 1018.25 1018.29 1018.41 1019.55 1020.77 1021.75 1022.41 1023.03 1023.21 1023.37 1023.61 1023.79 1023.78 1023.95 1023.79 1023.95 1024.21 1024.06 1023.62 1023.54 1023.48 1023.26 1023.18 1023.12 1023.12 1023.06 1023.22 1022.98 1022.40 1022.03 1021.67 1021.29 1020.97 1019.69 1018.89 1018.57 1018.48 1018.72 1018.90 1018.93 1018.86
1017.21 1017.81 1018.61 1020.32 1021.87 1021.55 1019.78 1018.77 1019.08 1019.44 1020.23 1020.86 1021.58 1021.92 1022.38 1023.02 1023.30 1023.62 1023.77 1023.98 1024.02 1024.09 1024.30 1024.25 1024.64 1024.70 1024.21 1024.18 1024.37 1024.61 1024.25 1023.69 1023.69 1023.60 1023.20 1023.41 1023.42 1022.73 1022.21 1021.58 1021.18 1020.34 1019.38 1019.06 1018.89 1018.78 1018.68 1018.66 1018.58
1017.17 1017.79 1018.83 1020.30 1021.91 1021.79 1020.20 1019.43 1019.04 1020.09 1020.92 1021.68 1022.19 1022.55 1022.82 1022.88 1023.08 1023.37 1023.61 1023.96 1024.29 1024.58 1024.60 1024.19 1024.96 1025.32 1024.96 1024.64 1024.23 1024.50 1024.56 1024.42 1024.43 1023.85 1023.49 1023.51 1023.76 1023.81 1023.24 1022.16 1021.26 1020.60 1020.15 1019.20 1019.19 1019.14 1018.84 1018.66 1018.37
1018.12 1018.39 1019.12 1020.11 1021.03 1021.20 1020.91 1019.63 1018.77 1019.51 1020.60 1021.70 1022.06 1022.19 1022.27 1022.67 1022.90 1023.28 1023.65 1024.01 1024.49 1024.99 1024.73 1024.81 1025.11 1025.30 1025.23 1025.50 1025.50 1025.05 1024.79 1024.68 1024.71 1024.71 1024.38 1023.70 1023.45 1023.73 1023.64 1023.09 1021.68 1020.63 1020.51 1019.86 1019.36 1019.15 1018.96 1018.80 1018.37
1018.25 1018.63 1019.48 1020.47 1021.20 1021.21 1020.88 1019.71 1019.23 1019.62 1020.49 1021.05 1021.56 1021.81 1022.04 1022.49 1023.03 1023.32 1023.77 1024.22 1024.53 1024.46 1024.64 1025.00 1025.21 1025.29 1025.28 1024.92 1025.55 1025.26 1025.23 1025.28 1024.97 1025.22 1025.02 1024.50 1023.77 1023.14 1023.07 1022.53 1021.84 1020.91 1020.77 1020.22 1019.29 1019.07 1018.87 1018.76 1018.36
Wind_Speed
8 8 0 5 6 6 4 2 3 6 3 1 0 2 3 2 3 4 3 8 9 13 13 14 16 16 16 15 13 12 13 14 14 13 11 11 10 10 9 10 12 10 10 8 8 8 8 8 7
5 5 5 2 6 4 5 3 5 4 4 1 1 1 1 1 3 4 4 7 10 12 12 13 15 16 16 16 15 14 13 13 13 13 14 14 12 11 9 10 11 12 8 8 8 9 8 8 6
4 1 4 4 3 3 3 2 2 4 4 2 3 1 1 2 3 7 3 7 9 9 11 11 14 17 16 17 15 13 12 12 12 14 14 13 12 12 11 10 10 10 7 8 7 8 7 7 6
3 6 5 5 2 2 3 2 3 2 2 2 2 4 3 2 3 6 7 7 8 8 10 12 13 14 15 15 17 15 14 13 13 14 15 14 13 11 10 8 9 9 8 7 7 7 6 6 6
4 3 4 2 4 1 4 4 2 2 2 3 3 3 4 4 6 7 8 6 7 8 8 12 15 15 15 15 15 14 14 13 13 13 13 14 15 12 10 7 7 8 7 8 8 7 6 6 6
4 4 4 1 5 2 2 4 2 3 3 1 2 1 1 2 3 5 7 7 7 8 7 10 16 15 15 16 16 15 14 12 9 13 14 16 16 14 12 9 9 9 8 7 8 8 7 6 6
2 4 3 3 4 5 2 1 3 2 5 1 1 1 1 2 3 6 7 6 7 8 8 8 10 13 13 13 13 13 13 13 11 13 14 14 14 13 13 10 10 10 9 9 8 8 8 6 5
4 4 2 3 1 3 3 1 3 2 5 0 1 2 3 6 8 7 5 5 6 6 7 8 8 8 7 7 13 14 13 11 11 11 11 10 9 10 11 9 8 10 9 9 9 9 8 7 5
3 5 2 3 5 3 4 4 5 4 3 2 4 5 4 2 6 4 2 2 3 3 6 7 8 7 7 5 6 8 12 13 11 11 12 10 5 7 9 9 8 9 9 9 9 8 8 7 4
5 4 5 2 0 3 3 1 3 5 7 8 7 5 2 7 4 6 7 8 6 7 6 8 8 9 9 9 7 6 5 5 6 7 8 6 6 5 7 8 11 10 10 11 11 9 8 6 2
4 5 3 6 4 2 3 7 4 5 5 9 10 7 8 6 7 9 9 9 11 9 4 9 9 9 10 8 6 5 6 5 4 8 8 7 5 5 4 4 4 4 7 4 5 6 3 4 2
3 7 5 5 4 4 3 2 9 5 14 8 12 9 6 10 9 8 10 10 7 8 12 9 9 9 9 7 6 7 7 6 6 7 9 7 5 6 4 4 5 5 4 6 5 3 3 3 4
4 3 4 6 8 8 4 5 6 11 17 11 13 12 10 8 8 8 9 8 7 9 9 11 10 10 10 8 5 6 8 7 7 7 8 8 7 6 6 5 5 5 5 5 5 5 4 4 3
2 2 5 7 11 7 6 6 3 11 7 10 8 8 7 8 10 10 14 11 11 10 8 6 11 11 8 9 7 5 5 5 6 4 6 10 8 6 8 6 6 5 5 5 5 6 5 4 4
2 5 7 10 5 7 5 3 8 13 7 10 9 6 8 13 11 10 9 11 11 11 13 7 6 7 8 8 7 5 5 5 4 5 6 7 8 8 9 7 6 6 5 7 5 4 4 4 3
4 1 3 6 3 3 3 7 10 11 6 13 14 7 7 11 12 11 12 11 12 13 14 12 9 5 8 7 6 5 5 4 4 4 5 7 8 10 7 6 5 5 5 5 5 5 4 4 4
2 3 5 8 2 3 3 6 9 10 7 14 9 6 11 11 14 14 13 13 14 12 13 13 12 9 2 2 3 4 6 4 4 4 4 6 7 8 8 5 5 6 5 4 6 2 4 3 3
5 4 4 5 5 2 4 9 9 12 12 12 7 9 12 13 12 12 15 16 15 14 14 14 13 15 8 5 4 4 2 0 2 3 4 6 7 7 6 5 6 5 5 4 3 4 1 3 4
2 3 4 6 9 4 9 6 11 11 10 10 7 13 11 12 9 12 14 14 15 16 16 16 15 14 10 5 4 3 2 2 2 1 4 6 6 7 6 4 6 5 7 7 6 4 5 2 3
4 4 7 6 5 2 7 9 14 14 3 4 13 10 8 9 11 14 15 16 15 14 14 16 15 15 11 7 4 3 3 2 3 4 5 2 4 6 6 6 5 6 5 6 7 5 3 3 6
3 4 5 8 4 4 4 7 8 4 13 13 11 10 11 11 12 13 15 13 12 15 15 15 14 14 13 12 8 5 4 4 5 5 4 5 3 3 5 5 5 5 6 7 8 7 8 5 6
5 3 4 3 3 4 3 7 4 2 7 8 7 8 9 11 12 12 11 12 12 12 12 14 15 16 14 15 11 11 6 5 3 3 4 6 7 6 3 0 3 5 4 5 6 6 6 6 6
8 2 2 3 4 2 6 0 10 9 5 4 6 9 10 9 11 10 9 10 9 8 10 11 13 15 15 16 14 9 10 5 5 7 9 9 7 8 6 4 3 2 3 5 6 5 6 4 5
4 2 4 2 3 1 5 6 6 4 9 6 7 9 10 9 8 8 7 6 7 7 7 10 13 14 14 13 14 14 13 11 10 10 9 8 6 7 9 9 4 3 3 4 5 7 7 9 6
4 5 4 5 2 7 2 3 8 5 5 13 13 10 7 7 7 7 8 7 8 10 10 10 11 12 11 11 13 13 12 12 11 10 7 8 7 6 9 10 8 5 4 4 4 5 6 7 9
5 6 6 6 3 5 7 6 5 9 17 17 13 10 8 6 6 7 7 6 7 8 9 9 10 10 9 9 9 8 8 6 6 7 6 7 6 6 9 9 8 8 7 6 4 3 4 5 7
4 4 3 2 1 3 5 6 8 9 12 12 10 8 7 6 6 6 6 6 6 7 7 8 7 8 9 8 6 7 7 8 7 8 6 6 7 8 9 8 9 9 7 7 7 4 5 5 6
3 1 2 2 1 5 6 4 5 5 10 8 6 7 6 5 6 6 6 6 5 5 5 8 7 7 8 8 6 5 6 7 7 5 6 7 7 9 9 9 8 9 9 7 6 5 6 6 5
1 1 2 2 5 5 2 6 4 7 12 10 8 9 8 7 7 6 6 6 6 4 5 5 4 4 4 5 5 6 6 7 7 8 7 6 5 6 8 8 7 7 8 7 7 7 7 7 7
6 6 5 4 6 3 3 12 3 8 11 9 9 8 7 6 6 5 6 6 5 5 4 4 3 1 1 2 4 4 4 6 5 5 7 6 7 7 9 10 9 6 6 7 6 7 7 7 8
Wind_Direction
309 294 323 34 52 64 318 33 90 39 37 178 319 100 207 223 209 212 239 191 131 152 162 162 167 165 160 156 154 156 159 161 159 154 148 141 139 143 146 125 113 109 95 91 89 85 83 71 59
311 314 41 68 82 71 292 131 106 161 182 125 307 357 9 330 119 123 122 190 135 150 160 164 167 168 165 163 163 167 169 166 166 167 169 154 145 135 117 117 119 114 110 110 109 106 100 92 72
304 347 73 94 113 137 167 51 60 6 132 100 7 6 244 148 119 154 210 162 123 149 157 165 167 170 168 164 167 166 170 172 176 168 160 152 147 137 128 125 133 124 131 124 125 113 108 97 84
13 9 15 85 236 273 110 152 79 40 53 96 134 319 328 329 116 161 149 148 130 150 157 157 169 174 172 170 169 172 177 180 180 178 174 163 156 146 139 143 148 135 146 138 132 120 116 111 99
33 68 47 0 289 142 67 101 81 302 294 174 149 301 306 24 115 132 143 151 153 154 165 162 169 176 175 176 177 179 183 187 185 182 172 166 155 150 141 151 170 145 162 148 137 126 124 116 103
10 90 48 4 307 293 73 102 38 330 336 261 58 40 329 156 137 182 151 168 167 166 157 170 175 176 178 180 181 182 186 194 198 184 171 168 161 159 148 161 177 181 168 158 140 138 140 120 107
93 77 218 272 286 344 141 171 73 11 351 360 244 329 293 237 177 164 165 183 185 179 153 168 180 186 182 180 182 183 187 191 198 195 180 167 169 165 155 160 177 177 176 166 151 149 140 122 102
98 92 300 281 244 275 183 112 144 66 278 242 42 273 240 226 177 145 159 176 215 190 173 170 174 182 189 193 186 183 185 189 194 187 169 161 163 151 146 151 179 180 182 170 162 157 144 133 116
54 60 264 264 17 345 350 28 343 336 294 351 237 211 260 126 136 127 166 225 227 236 202 171 175 181 186 195 196 196 185 186 193 183 170 164 159 157 148 149 176 186 187 175 170 162 145 123 115
96 112 237 149 344 311 303 91 312 353 320 295 299 290 111 142 176 191 202 224 218 215 212 199 179 183 181 195 193 202 199 198 188 172 175 164 161 161 156 160 176 184 173 173 174 166 145 125 116
180 191 221 301 339 342 319 324 333 338 298 246 269 269 302 178 221 223 226 218 217 215 202 193 192 176 180 192 177 183 200 195 184 178 170 167 162 170 161 160 169 168 160 160 162 151 141 171 201
200 226 229 271 317 309 265 295 303 219 254 246 270 266 277 298 287 231 229 229 221 208 213 203 191 185 184 187 177 179 186 182 183 184 173 178 175 167 167 164 165 161 158 155 149 151 177 206 164
214 253 298 314 299 275 285 262 247 275 274 280 274 286 277 273 273 294 268 263 236 218 207 205 186 190 191 180 172 177 186 185 185 174 179 186 184 171 154 172 162 163 160 161 167 170 178 179 152
324 315 285 266 261 264 239 251 139 278 294 308 322 309 309 313 13 24 17 20 11 348 292 206 194 196 175 186 177 176 171 181 187 182 181 192 192 172 165 171 175 171 177 170 167 171 173 176 161
338 327 312 266 265 226 147 310 227 253 304 295 300 312 326 52 48 38 22 32 12 359 1 327 209 180 178 178 175 163 170 165 182 195 193 183 182 172 165 171 178 180 177 163 156 167 154 157 166
301 51 317 284 158 280 82 252 275 281 316 298 294 342 359 59 46 29 24 32 18 11 7 354 359 210 177 174 168 166 169 178 178 186 187 178 175 165 163 168 179 172 163 159 161 162 162 176 175
306 233 210 314 348 145 169 248 264 290 296 277 307 349 98 65 44 31 27 27 20 15 7 6 7 12 298 144 153 170 176 170 189 175 179 172 164 160 163 167 176 161 159 166 166 158 146 166 176
225 233 285 253 276 155 248 253 269 276 283 287 312 83 75 66 49 37 30 25 20 18 19 16 16 18 33 53 52 36 38 98 157 178 176 168 162 156 159 161 168 161 155 159 161 151 161 153 164
268 245 262 274 277 304 280 283 270 264 282 326 72 97 85 71 60 46 37 31 24 23 21 20 25 16 21 8 26 31 28 359 360 191 165 160 170 161 162 175 166 159 174 179 173 139 169 186 155
235 254 278 287 286 1 287 284 284 277 355 126 119 99 88 87 59 47 39 29 22 24 21 21 22 22 24 24 360 41 44 34 2 356 17 82 165 172 162 166 184 168 149 164 171 159 142 175 183
251 229 249 232 309 297 302 290 267 330 93 82 74 90 86 77 65 49 41 32 30 26 22 27 26 26 25 18 24 21 23 28 18 358 357 4 45 168 167 168 162 173 184 191 189 176 169 191 213
262 189 234 243 68 223 59 281 293 207 98 77 78 73 75 74 71 63 50 41 35 29 28 28 27 29 27 25 34 38 41 48 6 9 359 353 2 12 9 200 195 176 183 191 201 197 185 143 194
226 100 213 220 219 30 267 61 261 109 107 124 107 91 82 77 75 65 54 47 37 32 31 26 34 36 28 27 30 33 37 21 5 17 19 1 350 352 348 352 352 251 197 208 198 190 209 191 173
127 40 317 40 109 343 260 174 277 193 172 154 124 99 92 85 77 75 62 54 43 29 38 39 38 33 28 32 31 32 34 25 27 18 14 2 352 0 351 324 308 302 288 227 213 213 208 217 225
73 73 322 345 13 219 235 3 245 358 132 120 110 96 87 80 74 67 57 40 39 36 35 40 37 35 26 35 36 30 24 28 30 20 16 8 359 351 357 345 333 312 283 255 238 232 222 216 223
184 165 155 233 227 249 9 264 305 76 86 97 104 110 94 82 74 73 69 62 57 43 41 37 27 29 26 24 27 29 31 34 29 25 8 2 2 350 342 345 331 342 340 311 266 232 239 236 228
178 164 172 169 79 38 216 281 107 101 89 99 107 106 113 112 112 110 88 71 67 66 53 50 36 22 26 28 23 16 14 34 28 16 23 5 346 347 346 344 342 338 345 341 323 285 264 252 241
148 202 44 22 213 253 280 242 222 145 129 122 126 127 132 134 128 130 119 110 84 87 86 74 46 26 11 9 27 30 18 16 9 16 21 10 348 338 335 340 345 344 336 344 340 317 301 285 265
96 248 198 184 172 197 230 260 161 148 154 155 171 179 180 177 172 153 135 112 101 106 97 106 106 82 46 15 2 13 12 6 360 355 349 358 335 330 329 318 332 346 337 336 336 317 302 290 277
186 223 186 160 265 258 239 258 159 139 158 175 197 196 191 177 159 122 121 131 130 112 117 140 162 142 84 53 352 349 350 344 347 325 324 329 329 332 326 328 328 328 319 316 325 316 300 288 286